Location: Kershaw
(34.5481°N, 80.5823°W)
Time: 16:14:28
(UTC+00:00)

Courier 1B Rocket - Pass Details

Date: 30 September 2022
Orbit: 920 x 1202 km, 28.2° (Epoch: 08 December)

Event Time Altitude Azimuth Distance (km) Brightness Sun altitude
Rises 00:56:24 0° 233° (SW) 3,683 8.6 -22.8°
Reaches altitude 10° 00:59:24 10° 223° (SW) 2,696 7.7 -23.4°
Enters shadow 01:04:51 31° 165° (SSE) 1,572 5.8 -24.5°
Maximum altitude 01:04:59 31° 163° (SSE) 1,571 - -24.5°
Drops below altitude 10° 01:10:24 10° 103° (ESE) 2,610 - -25.6°
Sets 01:13:15 0° 93° (E) 3,548 - -26.2°
